Flag for China Weather past 2 weeks in Kunming, Yunnan, China

Now
46 °F

Clear.


Feels Like: 44 °F
Forecast: 46 / 69 °F
Wind: 6 mph from Southwest

Location: Kunming Airport

Current Time: Oct 26, 2014 at 7:15:02 AM

Latest Report: Oct 26, 2014 at 6:00 AM


Visibility: 10 mi

Pressure: 30.30 "Hg

Humidity: 100%

Dew point: 46 °F

Location of KunmingLocation

Historic Weather in Kunming — Graph

°F

Kunming temperature yesterday

Maximum temperature yesterday: 66 °F (at 2:00 PM)
Minimum temperature yesterday: 46 °F (at 5:00 AM)
Average temperature yesterday: 57 °F

Past Weeks' High & Low Weather Summary

 TemperatureHumidityPressure
High70 °F (Oct 17, 3:00 PM)100% (Oct 11, 6:00 AM)30.45 "Hg (Oct 11, 6:00 AM)
Low46 °F (Oct 25, 5:00 AM)29% (Oct 23, 5:00 PM)30.15 "Hg (Oct 11, 6:00 AM)
Average58 °F86%30.28 "Hg
* Reported Oct 11 6:00 AM — Oct 26 6:00 AM, Kunming, Weather by CustomWeather, © 2014

Note: Actual official high and low records may vary slightly from our data, if they occured in-between our weather recording intervals... More about our weather records

Advertising

Kunming weather history for previous 24 hours

 ConditionsComfort  
Time TempWeatherWind HumidityBarometerVisibility
6:00 AM
Oct 26
46 °FClear.6 mph100%30.30 "Hg10 mi
5:00 AM48 °FClear.6 mph100%30.30 "Hg10 mi
4:00 AM48 °FClear.6 mph100%30.30 "Hg10 mi
3:00 AM50 °FClear.3 mph94%30.30 "Hg10 mi
2:00 AM50 °FClear.6 mph94%30.30 "Hg10 mi
1:00 AM52 °FClear.6 mph88%30.30 "Hg10 mi
12:00 AM52 °FClear.6 mph94%30.30 "Hg10 mi
11:00 PM
Oct 25
52 °FClear.6 mph94%30.30 "Hg10 mi
10:00 PM54 °FClear.6 mph88%30.30 "Hg10 mi
9:00 PM55 °FPassing clouds.3 mph72%30.27 "HgN/A
8:00 PM57 °FClear.6 mph67%30.27 "Hg10 mi
7:00 PM63 °FPassing clouds.6 mph56%30.24 "HgN/A
6:00 PM66 °FScattered clouds.10 mph46%30.24 "HgN/A
5:00 PM66 °FScattered clouds.8 mph43%30.24 "HgN/A
4:00 PM66 °FScattered clouds.13 mph43%30.24 "HgN/A
3:00 PM66 °FScattered clouds.10 mph43%30.24 "HgN/A
2:00 PM66 °FScattered clouds.10 mph43%30.27 "HgN/A
1:00 PM64 °FScattered clouds.13 mph56%30.30 "HgN/A
12:00 PM64 °FScattered clouds.13 mph60%30.33 "HgN/A
11:00 AM61 °FScattered clouds.8 mph72%30.36 "HgN/A
10:00 AM57 °FScattered clouds.10 mph88%30.36 "HgN/A
9:00 AM55 °FBroken clouds.3 mph94%30.33 "HgN/A
8:00 AM50 °FScattered clouds.1 mph94%30.30 "HgN/A
7:00 AM50 °FPassing clouds.1 mph94%30.30 "HgN/A
Weather by CustomWeather, © 2014

See weather overviewHow to use our weather pages